GW2492 Weather Reports


Display with metric or nautical units.
time (UTC)temp
F
wind
direction
speed
MPH
gust
MPH
rain 1hr
in
rain 24hr
in
rain mn
in
humidity
%
barometer
mb
20260831110051 77 181 14.0 24.0 0.00 0.00 0.00 71 1016.1
20260831104602 77 168 14.0 26.0 0.00 0.00 0.00 69 1016.0
20260831103045 78 179 18.0 23.0 0.00 0.00 0.00 68 1016.0
20260831101604 78 174 16.0 22.0 0.00 0.00 0.00 68 1016.0
20260831094559 78 184 15.0 26.0 0.00 0.00 0.00 69 1016.0
20260831093058 78 184 16.0 25.0 0.00 0.00 0.00 70 1015.8
20260831091550 78 170 17.0 23.0 0.00 0.00 0.00 70 1015.8
20260831090100 79 154 18.0 26.0 0.00 0.00 0.00 69 1015.8
20260831084608 79 159 17.0 23.0 0.00 0.00 0.00 68 1015.7
20260831083048 79 155 14.0 21.0 0.00 0.00 0.00 67 1015.8
20260831081555 79 185 12.0 21.0 0.00 0.00 0.00 65 1015.7
20260831080050 80 151 14.0 22.0 0.00 0.00 0.00 64 1015.6
20260831074600 80 142 14.0 21.0 0.00 0.00 0.00 62 1015.6
20260831073058 81 150 15.0 21.0 0.00 0.00 0.00 60 1015.6
20260831071607 81 148 14.0 19.0 0.00 0.00 0.00 59 1015.6
20260831070109 81 146 14.0 19.0 0.00 0.00 0.00 59 1015.6
20260831064557 81 154 13.0 18.0 0.00 0.00 0.00 58 1015.6
20260831063057 81 154 11.0 15.0 0.00 0.00 0.00 58 1015.6
20260831061606 82 148 11.0 14.0 0.00 0.00 0.00 57 1015.6
20260831060058 82 151 10.0 15.0 0.00 0.00 0.00 56 1015.6
20260831054548 83 163 10.0 15.0 0.00 0.00 0.00 56 1015.7
20260831053131 83 143 10.0 15.0 0.00 0.00 0.00 55 1015.6
20260831051603 84 153 10.0 18.0 0.00 0.00 0.00 54 1015.7
20260831050052 84 151 11.0 16.0 0.00 0.00 0.00 53 1015.7
20260831044557 84 168 10.0 16.0 0.00 0.00 0.00 53 1015.7
20260831043058 85 154 13.0 16.0 0.00 0.00 0.00 52 1015.7
20260831041615 85 159 12.0 18.0 0.00 0.00 0.00 53 1015.7
20260831034559 86 162 12.0 21.0 0.00 0.00 0.00 51 1015.6
20260831033111 86 155 11.0 15.0 0.00 0.00 0.00 49 1015.5
20260831031555 87 153 14.0 19.0 0.00 0.00 0.00 47 1015.2
20260831030051 87 144 13.0 17.0 0.00 0.00 0.00 45 1015.1
20260831024555 88 129 8.0 12.0 0.00 0.00 0.00 43 1014.7
20260831023058 88 142 9.0 14.0 0.00 0.00 0.00 42 1014.4
20260831021555 89 150 9.0 14.0 0.00 0.00 0.00 41 1014.2
20260831020106 89 146 8.0 13.0 0.00 0.00 0.00 40 1014.0
20260831014558 91 144 8.0 15.0 0.00 0.00 0.00 39 1013.8
20260831013100 92 157 10.0 15.0 0.00 0.00 0.00 38 1013.8
20260831011552 92 135 8.0 14.0 0.00 0.00 0.00 37 1013.8
20260831010050 93 132 8.0 12.0 0.00 0.00 0.00 36 1013.7
20260831004600 94 148 11.0 15.0 0.00 0.00 0.00 35 1013.5
20260831003058 95 146 9.0 13.0 0.00 0.00 0.00 35 1013.5
20260831001555 95 150 11.0 14.0 0.00 0.00 0.00 35 1013.3
20260831000050 96 173 10.0 18.0 0.00 0.00 0.00 35 1013.2
20260830234546 97 140 6.0 11.0 0.00 0.00 0.00 34 1013.4
20260830233057 97 146 10.0 16.0 0.00 0.00 0.00 33 1013.6
20260830231558 96 142 9.0 14.0 0.00 0.00 0.00 35 1013.5
20260830230057 96 163 4.0 12.0 0.00 0.00 0.00 35 1013.7
20260830224551 96 128 11.0 16.0 0.00 0.00 0.00 33 1013.7
20260830223050 97 218 6.0 10.0 0.00 0.00 0.00 34 1013.8
20260830221557 97 180 8.0 15.0 0.00 0.00 0.00 34 1013.8
20260830214554 97 163 7.0 16.0 0.00 0.00 0.00 36 1014.0
20260830213046 97 161 9.0 15.0 0.00 0.00 0.00 37 1014.2
20260830211610 96 189 4.0 16.0 0.00 0.00 0.00 36 1014.4
20260830210054 96 150 9.0 14.0 0.00 0.00 0.00 36 1014.8
20260830204551 96 123 3.0 18.0 0.00 0.00 0.00 36 1015.0
20260830203049 96 155 8.0 17.0 0.00 0.00 0.00 36 1015.3
20260830201605 96 128 8.0 14.0 0.00 0.00 0.00 38 1015.5
20260830200058 95 150 5.0 17.0 0.00 0.00 0.00 39 1015.5
20260830194602 96 115 3.0 16.0 0.00 0.00 0.00 37 1015.7
20260830193058 96 148 5.0 17.0 0.00 0.00 0.00 37 1015.8
20260830191600 95 158 6.0 15.0 0.00 0.00 0.00 38 1016.1
20260830190104 95 182 8.0 13.0 0.00 0.00 0.00 39 1016.3
20260830184600 94 157 5.0 9.0 0.00 0.00 0.00 41 1016.7
20260830183056 93 159 10.0 16.0 0.00 0.00 0.00 42 1016.9
20260830181547 93 146 9.0 15.0 0.00 0.00 0.00 43 1017.1
20260830180111 92 146 8.0 15.0 0.00 0.00 0.00 44 1017.4
20260830174607 91 230 4.0 13.0 0.00 0.00 0.00 49 1017.5
20260830173127 91 178 10.0 16.0 0.00 0.00 0.00 49 1017.9
20260830171610 90 242 8.0 15.0 0.00 0.00 0.00 52 1018.0
20260830170058 91 216 6.0 16.0 0.00 0.00 0.00 54 1018.1
20260830164550 90 208 9.0 18.0 0.00 0.00 0.00 55 1018.1
20260830163048 89 216 10.0 17.0 0.00 0.00 0.00 57 1018.3
20260830161607 88 202 12.0 17.0 0.00 0.00 0.00 59 1018.2
20260830160106 87 207 13.0 18.0 0.00 0.00 0.00 60 1018.1
20260830154552 86 195 10.0 16.0 0.00 0.00 0.00 63 1018.1
20260830153049 85 182 13.0 17.0 0.00 0.00 0.00 64 1018.2
20260830151604 83 209 12.0 17.0 0.00 0.00 0.00 68 1018.3
20260830150048 82 217 13.0 18.0 0.00 0.00 0.00 70 1018.2
20260830144601 82 202 11.0 15.0 0.00 0.00 0.00 71 1018.2
20260830143059 81 199 10.0 15.0 0.00 0.00 0.00 73 1018.3
20260830141553 80 225 10.0 16.0 0.00 0.00 0.00 75 1018.4
20260830134553 78 216 9.0 17.0 0.00 0.00 0.00 77 1018.2
20260830133116 77 200 9.0 13.0 0.00 0.00 0.00 78 1018.0
20260830131559 76 208 7.0 12.0 0.00 0.00 0.00 79 1017.9
20260830130050 75 194 6.0 9.0 0.00 0.00 0.00 80 1017.9
20260830124556 75 198 4.0 8.0 0.00 0.00 0.00 81 1017.9
20260830123056 74 200 5.0 10.0 0.00 0.00 0.00 81 1017.6
20260830121550 74 206 5.0 8.0 0.00 0.00 0.00 80 1017.5
20260830120048 75 207 4.0 8.0 0.00 0.00 0.00 79 1017.4
20260830114604 75 215 6.0 9.0 0.00 0.00 0.00 79 1017.3
20260830113052 75 184 5.0 9.0 0.00 0.00 0.00 78 1017.1
20260830111549 75 189 6.0 10.0 0.00 0.00 0.00 77 1017.0